EN

Hourly Weather Tokodaltáró

Today, 27 October, Tuesday

Time Temperature Precipitation Wind Pressure Humidity
00:00 +12°C° 0 mm 3 mps 747 mmHg 85%
01:00 +12°C° 0 mm 3 mps 747 mmHg 85%
02:00 +12°C° 0 mm 3 mps 747 mmHg 86%
03:00 +11°C° 0 mm 3 mps 747 mmHg 87%
04:00 +12°C° 0 mm 2 mps 747 mmHg 88%
05:00 +12°C° 0 mm 2 mps 747 mmHg 89%
06:00 +12°C° 0 mm 2 mps 747 mmHg 90%
07:00 +12°C° 0 mm 2 mps 748 mmHg 90%
08:00 +13°C° 0 mm 2 mps 748 mmHg 85%
09:00 +14°C° 0 mm 2 mps 748 mmHg 80%
10:00 +16°C° 0 mm 3 mps 748 mmHg 75%
11:00 +17°C° 0 mm 3 mps 748 mmHg 72%
12:00 +18°C° 0 mm 3 mps 748 mmHg 68%
13:00 +19°C° 0 mm 3 mps 748 mmHg 65%
14:00 +18°C° 0 mm 3 mps 748 mmHg 68%
15:00 +17°C° 0 mm 2 mps 748 mmHg 71%
16:00 +17°C° 0 mm 2 mps 748 mmHg 75%
17:00 +16°C° 0 mm 2 mps 749 mmHg 78%
18:00 +15°C° 0 mm 2 mps 749 mmHg 81%
19:00 +14°C° 0 mm 1 mps 750 mmHg 85%
20:00 +14°C° 0 mm 1 mps 750 mmHg 85%
21:00 +13°C° 0 mm 1 mps 750 mmHg 86%
22:00 +13°C° 0 mm 1 mps 750 mmHg 86%
23:00 +13°C° 0 mm 1 mps 750 mmHg 87%

Tomorrow, 28 October, Wednesday

Time Temperature Precipitation Wind Pressure Humidity
00:00 +13°C° 0 mm 1 mps 750 mmHg 88%
01:00 +12°C° 0 mm 1 mps 751 mmHg 89%
02:00 +12°C° 0 mm 1 mps 751 mmHg 90%
03:00 +11°C° 0 mm 1 mps 750 mmHg 91%
04:00 +11°C° 0 mm 1 mps 750 mmHg 92%
05:00 +11°C° 0 mm 1 mps 751 mmHg 92%
06:00 +10°C° 0 mm 0 mps 751 mmHg 92%
07:00 +10°C° 0 mm 0 mps 751 mmHg 93%
08:00 +11°C° 0 mm 0 mps 752 mmHg 87%
09:00 +13°C° 0 mm 0 mps 752 mmHg 81%
10:00 +14°C° 0 mm 0 mps 752 mmHg 75%
11:00 +15°C° 0 mm 0 mps 752 mmHg 72%
12:00 +18°C° 0 mm 1 mps 752 mmHg 69%
13:00 +19°C° 0 mm 1 mps 751 mmHg 65%
14:00 +18°C° 0 mm 1 mps 752 mmHg 68%
15:00 +18°C° 0 mm 1 mps 752 mmHg 71%
16:00 +16°C° 0 mm 1 mps 752 mmHg 74%
17:00 +15°C° 0 mm 1 mps 752 mmHg 77%
18:00 +14°C° 0 mm 1 mps 752 mmHg 81%
19:00 +13°C° 0 mm 1 mps 752 mmHg 84%
20:00 +13°C° 0 mm 1 mps 753 mmHg 85%
21:00 +12°C° 0 mm 1 mps 753 mmHg 85%
22:00 +12°C° 0 mm 1 mps 753 mmHg 86%
23:00 +12°C° 0 mm 1 mps 753 mmHg 86%

Day after tomorrow, 29 October, Thursday

Time Temperature Precipitation Wind Pressure Humidity
00:00 +12°C° 0 mm 1 mps 753 mmHg 85%
01:00 +10°C° 0 mm 2 mps 753 mmHg 85%
02:00 +10°C° 0 mm 2 mps 753 mmHg 85%
03:00 +10°C° 0 mm 2 mps 753 mmHg 85%
04:00 +10°C° 0 mm 2 mps 753 mmHg 86%
05:00 +10°C° 0 mm 2 mps 753 mmHg 83%
06:00 +11°C° 0 mm 1 mps 753 mmHg 81%
07:00 +12°C° 0 mm 1 mps 754 mmHg 78%
08:00 +13°C° 0 mm 2 mps 754 mmHg 74%
09:00 +14°C° 0 mm 2 mps 754 mmHg 70%
10:00 +14°C° 0 mm 3 mps 754 mmHg 66%
11:00 +14°C° 0.1 mm 3 mps 754 mmHg 67%
12:00 +14°C° 0.1 mm 4 mps 754 mmHg 68%
13:00 +14°C° 0.1 mm 4 mps 754 mmHg 69%
14:00 +13°C° 0.1 mm 3 mps 754 mmHg 70%
15:00 +13°C° 0.1 mm 3 mps 754 mmHg 72%
16:00 +14°C° 0.1 mm 2 mps 754 mmHg 74%
17:00 +12°C° 0 mm 3 mps 755 mmHg 75%
18:00 +12°C° 0 mm 4 mps 755 mmHg 77%
19:00 +11°C° 0 mm 4 mps 755 mmHg 78%
20:00 +11°C° 0.1 mm 4 mps 755 mmHg 79%
21:00 +11°C° 0.1 mm 4 mps 756 mmHg 81%
22:00 +10°C° 0.1 mm 4 mps 756 mmHg 82%
23:00 +10°C° 0 mm 4 mps 756 mmHg 82%

30 October, Friday

Time Temperature Precipitation Wind Pressure Humidity
00:00 +8°C° 0 mm 4 mps 756 mmHg 82%
01:00 +7°C° 0 mm 4 mps 756 mmHg 82%
02:00 +7°C° 0 mm 4 mps 757 mmHg 83%
03:00 +8°C° 0 mm 3 mps 757 mmHg 85%
04:00 +7°C° 0 mm 2 mps 757 mmHg 86%
05:00 +7°C° 0 mm 2 mps 757 mmHg 86%
06:00 +7°C° 0 mm 2 mps 758 mmHg 86%
07:00 +7°C° 0 mm 2 mps 758 mmHg 86%
08:00 +8°C° 0 mm 2 mps 758 mmHg 83%
09:00 +9°C° 0 mm 2 mps 758 mmHg 79%
10:00 +10°C° 0 mm 2 mps 758 mmHg 75%
11:00 +10°C° 0 mm 3 mps 757 mmHg 77%
12:00 +11°C° 0 mm 3 mps 757 mmHg 80%
13:00 +11°C° 0 mm 3 mps 757 mmHg 82%
14:00 +11°C° 0.3 mm 3 mps 756 mmHg 84%
15:00 +11°C° 0.3 mm 3 mps 756 mmHg 86%
16:00 +11°C° 0.3 mm 3 mps 756 mmHg 88%
17:00 +11°C° 0.3 mm 4 mps 756 mmHg 88%
18:00 +11°C° 0.3 mm 4 mps 756 mmHg 89%
19:00 +10°C° 0.3 mm 5 mps 755 mmHg 90%
20:00 +10°C° 0.3 mm 5 mps 755 mmHg 89%
21:00 +12°C° 0.3 mm 5 mps 755 mmHg 89%
22:00 +12°C° 0.3 mm 5 mps 755 mmHg 89%
23:00 +12°C° 0.1 mm 5 mps 755 mmHg 87%

31 October, Saturday

Time Temperature Precipitation Wind Pressure Humidity
00:00 +12°C° 0.1 mm 5 mps 754 mmHg 86%
01:00 +12°C° 0.1 mm 5 mps 754 mmHg 85%
02:00 +11°C° 0.1 mm 6 mps 754 mmHg 85%
03:00 +11°C° 0.1 mm 6 mps 754 mmHg 85%
04:00 +11°C° 0.1 mm 6 mps 754 mmHg 85%
05:00 +11°C° 0.1 mm 6 mps 754 mmHg 86%
06:00 +11°C° 0.1 mm 6 mps 754 mmHg 87%
07:00 +11°C° 0.1 mm 6 mps 754 mmHg 87%
08:00 +13°C° 0 mm 6 mps 755 mmHg 85%
09:00 +14°C° 0 mm 6 mps 755 mmHg 82%
10:00 +14°C° 0 mm 5 mps 756 mmHg 80%
11:00 +14°C° 0.1 mm 5 mps 756 mmHg 79%
12:00 +14°C° 0.1 mm 4 mps 756 mmHg 79%
13:00 +14°C° 0.1 mm 4 mps 756 mmHg 78%
14:00 +14°C° 0 mm 3 mps 757 mmHg 77%
15:00 +14°C° 0 mm 2 mps 757 mmHg 77%
16:00 +14°C° 0 mm 1 mps 757 mmHg 76%
17:00 +13°C° 0 mm 1 mps 758 mmHg 77%
18:00 +12°C° 0 mm 1 mps 758 mmHg 77%
19:00 +10°C° 0 mm 2 mps 759 mmHg 78%
20:00 +10°C° 0 mm 1 mps 759 mmHg 78%
21:00 +10°C° 0 mm 1 mps 759 mmHg 78%
22:00 +9°C° 0 mm 1 mps 759 mmHg 78%
23:00 +9°C° 0 mm 1 mps 760 mmHg 78%

1 November, Sunday

Time Temperature Precipitation Wind Pressure Humidity
00:00 +8°C° 0 mm 1 mps 760 mmHg 79%
01:00 +8°C° 0 mm 1 mps 760 mmHg 79%
02:00 +8°C° 0 mm 1 mps 760 mmHg 79%
03:00 +8°C° 0 mm 1 mps 760 mmHg 79%
04:00 +7°C° 0 mm 1 mps 760 mmHg 79%
05:00 +6°C° 0 mm 0 mps 760 mmHg 79%
06:00 +6°C° 0 mm 0 mps 760 mmHg 79%
07:00 +6°C° 0 mm 0 mps 760 mmHg 79%
08:00 +9°C° 0 mm 1 mps 760 mmHg 73%
09:00 +10°C° 0 mm 1 mps 760 mmHg 67%
10:00 +12°C° 0 mm 1 mps 760 mmHg 62%
11:00 +13°C° 0 mm 1 mps 760 mmHg 60%
12:00 +13°C° 0 mm 1 mps 760 mmHg 57%
13:00 +14°C° 0 mm 1 mps 759 mmHg 55%
14:00 +13°C° 0 mm 1 mps 759 mmHg 59%
15:00 +13°C° 0 mm 1 mps 759 mmHg 62%
16:00 +12°C° 0 mm 1 mps 759 mmHg 65%
17:00 +11°C° 0 mm 1 mps 759 mmHg 68%
18:00 +10°C° 0 mm 1 mps 759 mmHg 71%
19:00 +10°C° 0 mm 1 mps 759 mmHg 73%
20:00 +9°C° 0 mm 1 mps 759 mmHg 74%
21:00 +9°C° 0 mm 1 mps 759 mmHg 75%
22:00 +9°C° 0 mm 1 mps 760 mmHg 76%
23:00 +8°C° 0 mm 1 mps 760 mmHg 77%
Show more